Location: Clover
(42.5131°N, 114.6874°W)
Time: 13:45:21
(UTC+00:00)

ARIANE 6 FM1 Upper Stage - Pass Details

Date: 23 January 2026
Orbit: 522 x 609 km, 62.0° (Epoch: 11 February)

Event Time Altitude Azimuth Distance (km) Brightness Sun altitude
Rises 01:30:42 0° 189° (S) 2,720 6.6 -9.5°
Reaches altitude 10° 01:33:10 10° 178° (S) 1,814 5.5 -10.0°
Maximum altitude 01:36:38 27° 119° (ESE) 1,049 3.7 -10.6°
Enters shadow 01:39:01 16° 70° (ENE) 1,454 4.1 -11.0°
